User: anonymous   Login
Location: NJAA Observatory
(40.6819°N, 74.8979°W)
Time: 18:20:41
(UTC-04:00)
Language:

S-56A Canister/Altair - Orbit

View from above orbital plane
View from above orbital plane
View from above satellite
View from above satellite

Ground track
Ground track

The orbit data is extracted from the following two-line orbital elements,

1    82U 61004B   16205.87846616 -.00000011 +00000-0 +43943-4 0  9991
2    82 038.8534 071.8534 1166151 049.7346 319.9602 12.25767938632972
Epoch (UTC): 23 July 2016 21:04:59
Eccentricity: 0.1166151
inclination: 38.8534°
perigee height: 641 km
apogee height: 2494 km
right ascension of ascending node: 71.8534°
argument of perigee: 49.7346°
revolutions per day: 12.25767938
mean anomaly at epoch: 319.9602°
orbit number at epoch: 63297

The dashed part of the orbit path shows where the satellite is in the earth's shadow,  

DLR